Location: Jodlow
(50.1500°N, 16.7500°E)
Time: 14:30:34
(UTC+01:00)

DOVE 4 - Visible Passes

Search period start: 21 March 2023 00:00
Search period end: 31 March 2023 01:00
Orbit: 586 x 791 km, 97.8° (Epoch: 21 March)

Date Brightness Start Highest point End Pass type
(mag) Time Alt. Az. Time Alt. Az. Time Alt. Az.
21 Mar ? 00:10:10 10° N 00:11:46 17° NNW 00:11:46 17° NNW visible
21 Mar ? 23:10:38 10° N 23:12:14 20° N 23:12:14 20° N visible
22 Mar ? 00:49:52 10° NNW 00:50:51 12° NW 00:50:51 12° NW visible
22 Mar ? 22:11:54 10° NNE 22:12:42 14° NNE 22:12:42 14° NNE visible
22 Mar ? 23:49:28 10° N 23:51:19 20° NNW 23:51:19 20° NNW visible
23 Mar ? 22:50:12 10° NNE 22:51:45 20° NNE 22:51:45 20° NNE visible
24 Mar ? 00:28:45 10° NNW 00:30:22 15° NNW 00:30:22 15° NNW visible
24 Mar ? 21:51:49 10° NE 21:52:12 12° NE 21:52:12 12° NE visible
24 Mar ? 23:28:51 10° N 23:30:48 23° N 23:30:48 23° N visible
25 Mar ? 22:29:50 10° NNE 22:31:14 18° NNE 22:31:14 18° NNE visible
26 Mar ? 00:07:52 10° N 00:09:50 19° NNW 00:09:50 19° NNW visible
27 Mar ? 00:08:17 10° N 00:10:16 24° N 00:10:16 24° N visible
27 Mar ? 01:47:33 10° NNW 01:48:52 13° NW 01:48:52 13° NW visible
27 Mar ? 23:09:33 10° NNE 23:10:41 16° NE 23:10:41 16° NE visible
28 Mar ? 00:47:06 10° N 00:49:17 23° NNW 00:49:17 23° NNW visible
28 Mar ? 23:47:48 10° NNE 23:49:41 23° NNE 23:49:41 23° NNE visible
29 Mar ? 01:26:20 10° NNW 01:28:17 16° NW 01:28:17 16° NW visible
29 Mar ? 22:49:26 10° NE 22:50:04 13° NE 22:50:04 13° NE visible
30 Mar ? 00:26:25 10° N 00:28:41 26° N 00:28:41 26° N visible
30 Mar ? 23:27:22 10° NNE 23:29:04 21° NNE 23:29:04 21° NNE visible
